| time (UTC) | temp F | wind direction | speed knots | gust knots | rain 1hr in | rain 24hr in | rain mn in | humidity % | barometer mb |
| 20260503201045 | 67 | 34 | 0.0 | 1.7 | 0.00 | 0.00 | 0.00 | 12 | 1009.6 |
| 20260503200051 | 67 | 32 | 0.0 | 3.5 | 0.00 | 0.00 | 0.00 | 11 | 1009.7 |
| 20260503195113 | 67 | 31 | 0.9 | 3.5 | 0.00 | 0.00 | 0.00 | 11 | 1009.8 |
| 20260503194106 | 66 | 299 | 0.0 | 1.7 | 0.00 | 0.00 | 0.00 | 16 | 1009.9 |
| 20260503193130 | 66 | 158 | 0.9 | 6.1 | 0.00 | 0.00 | 0.00 | 15 | 1010.2 |
| 20260503192152 | 66 | 169 | 0.9 | 6.1 | 0.00 | 0.00 | 0.00 | 13 | 1010.2 |
| 20260503191146 | 66 | 262 | 0.0 | 3.5 | 0.00 | 0.00 | 0.00 | 12 | 1010.3 |
| 20260503184939 | 65 | 172 | 0.0 | 5.2 | 0.00 | 0.00 | 0.00 | 15 | 1010.8 |
| 20260503183907 | 65 | 342 | 0.0 | 0.0 | 0.00 | 0.00 | 0.00 | 14 | 1011.0 |
| 20260503181804 | 65 | 353 | 0.0 | 0.0 | 0.00 | 0.00 | 0.00 | 16 | 1011.4 |
| 20260503180813 | 64 | 297 | 0.0 | 0.0 | 0.00 | 0.00 | 0.00 | 13 | 1011.6 |
| 20260503175812 | 65 | 301 | 0.0 | 0.0 | 0.00 | 0.00 | 0.00 | 14 | 1011.8 |
| 20260503174830 | 65 | 337 | 0.0 | 0.0 | 0.00 | 0.00 | 0.00 | 19 | 1012.0 |
| 20260503173839 | 64 | 35 | 0.0 | 1.7 | 0.00 | 0.00 | 0.00 | 15 | 1012.2 |
| 20260503172834 | 63 | 70 | 0.0 | 1.7 | 0.00 | 0.00 | 0.00 | 16 | 1012.4 |
| 20260503170717 | 64 | 15 | 0.0 | 1.7 | 0.00 | 0.00 | 0.00 | 21 | 1012.8 |
| 20260503150554 | 50 | 233 | 0.0 | 2.6 | 0.00 | 0.00 | 0.00 | 35 | 1015.9 |
| 20260503130452 | 32 | 84 | 0.0 | 0.0 | 0.00 | 0.00 | 0.00 | 63 | 1016.1 |
| 20260503080740 | 40 | 84 | 0.0 | 0.0 | 0.00 | 0.00 | 0.00 | 45 | 1017.3 |
| 20260503072459 | 42 | 90 | 0.0 | 2.6 | 0.00 | 0.00 | 0.00 | 43 | 1017.3 |
| 20260503071458 | 42 | 93 | 0.0 | 0.0 | 0.00 | 0.00 | 0.00 | 44 | 1017.3 |
| 20260503070426 | 41 | 84 | 0.0 | 0.0 | 0.00 | 0.00 | 0.00 | 46 | 1017.1 |
| 20260503054438 | 42 | 83 | 0.0 | 0.0 | 0.00 | 0.00 | 0.00 | 45 | 1016.7 |
| 20260503053437 | 42 | 83 | 0.0 | 0.0 | 0.00 | 0.00 | 0.00 | 43 | 1016.6 |
| 20260503052410 | 43 | 83 | 0.0 | 0.0 | 0.00 | 0.00 | 0.00 | 44 | 1016.6 |
| 20260503051422 | 42 | 78 | 0.0 | 0.9 | 0.00 | 0.00 | 0.00 | 42 | 1016.6 |
| 20260503050442 | 43 | 39 | 0.0 | 0.0 | 0.00 | 0.00 | 0.00 | 43 | 1016.5 |
| 20260503045506 | 43 | 39 | 0.0 | 0.0 | 0.00 | 0.00 | 0.00 | 41 | 1016.4 |
| 20260503044511 | 44 | 39 | 0.0 | 0.0 | 0.00 | 0.00 | 0.00 | 40 | 1016.3 |
| 20260503043500 | 44 | 39 | 0.0 | 0.0 | 0.00 | 0.00 | 0.00 | 39 | 1016.2 |
| 20260503042521 | 45 | 39 | 0.0 | 0.0 | 0.00 | 0.00 | 0.00 | 39 | 1016.2 |
| 20260503041459 | 45 | 39 | 0.0 | 0.0 | 0.00 | 0.00 | 0.00 | 38 | 1016.1 |
| 20260503040456 | 46 | 39 | 0.0 | 0.0 | 0.00 | 0.00 | 0.00 | 38 | 1016.1 |
| 20260503035455 | 47 | 39 | 0.0 | 0.0 | 0.00 | 0.00 | 0.00 | 34 | 1015.9 |
| 20260503034423 | 48 | 39 | 0.0 | 0.0 | 0.00 | 0.00 | 0.00 | 35 | 1015.8 |
| 20260503032255 | 50 | 39 | 0.0 | 0.0 | 0.00 | 0.00 | 0.00 | 33 | 1015.5 |
| 20260503031321 | 50 | 39 | 0.0 | 0.0 | 0.00 | 0.00 | 0.00 | 29 | 1015.4 |
| 20260503030310 | 51 | 39 | 0.0 | 0.0 | 0.00 | 0.00 | 0.00 | 26 | 1015.3 |
| 20260503025257 | 53 | 39 | 0.0 | 0.0 | 0.00 | 0.00 | 0.00 | 25 | 1015.2 |
| 20260503024318 | 54 | 17 | 0.0 | 1.7 | 0.00 | 0.00 | 0.00 | 22 | 1014.9 |
| 20260503022202 | 55 | 57 | 0.0 | 0.0 | 0.00 | 0.00 | 0.00 | 20 | 1014.4 |
| 20260503021209 | 56 | 57 | 0.0 | 0.9 | 0.00 | 0.00 | 0.00 | 20 | 1014.2 |
| 20260503020204 | 58 | 195 | 0.0 | 0.0 | 0.00 | 0.00 | 0.00 | 19 | 1014.1 |
| 20260503015147 | 60 | 197 | 0.0 | 0.0 | 0.00 | 0.00 | 0.00 | 16 | 1013.9 |
| 20260503014152 | 62 | 113 | 0.0 | 0.0 | 0.00 | 0.00 | 0.00 | 12 | 1013.9 |
| 20260503010931 | 64 | 196 | 0.9 | 6.1 | 0.00 | 0.00 | 0.00 | 12 | 1013.6 |
| 20260503005939 | 64 | 152 | 0.9 | 4.3 | 0.00 | 0.00 | 0.00 | 11 | 1013.6 |
| 20260503004914 | 65 | 127 | 0.9 | 0.9 | 0.00 | 0.00 | 0.00 | 12 | 1013.6 |
| 20260503003845 | 65 | 167 | 0.9 | 3.5 | 0.00 | 0.00 | 0.00 | 12 | 1013.7 |
| 20260503002831 | 65 | 144 | 0.0 | 3.5 | 0.00 | 0.00 | 0.00 | 11 | 1013.8 |
| 20260503001841 | 65 | 141 | 0.0 | 0.9 | 0.00 | 0.00 | 0.00 | 14 | 1013.8 |
| 20260503000851 | 65 | 89 | 0.0 | 3.5 | 0.00 | 0.00 | 0.00 | 14 | 1013.9 |
| 20260502235820 | 66 | 222 | 0.0 | 2.6 | 0.00 | 0.00 | 0.00 | 12 | 1014.0 |
| 20260502234749 | 66 | 150 | 0.0 | 0.9 | 0.00 | 0.00 | 0.00 | 13 | 1014.1 |
| 20260502233718 | 65 | 100 | 1.7 | 7.0 | 0.00 | 0.00 | 0.00 | 10 | 1014.2 |
| 20260502232705 | 65 | 127 | 0.0 | 1.7 | 0.00 | 0.00 | 0.00 | 12 | 1014.2 |
| 20260502230552 | 65 | 193 | 0.0 | 0.0 | 0.00 | 0.00 | 0.00 | 13 | 1014.5 |
| 20260502225534 | 65 | 219 | 0.0 | 2.6 | 0.00 | 0.00 | 0.00 | 12 | 1014.6 |
| 20260502224543 | 65 | 161 | 0.0 | 3.5 | 0.00 | 0.00 | 0.00 | 11 | 1014.5 |
| 20260502223552 | 65 | 191 | 0.0 | 4.3 | 0.00 | 0.00 | 0.00 | 11 | 1014.6 |
| 20260502222532 | 67 | 147 | 0.0 | 4.3 | 0.00 | 0.00 | 0.00 | 11 | 1014.7 |
| 20260502220357 | 67 | 144 | 0.9 | 2.6 | 0.00 | 0.00 | 0.00 | 9 | 1015.1 |
| 20260502215352 | 67 | 213 | 0.9 | 7.0 | 0.00 | 0.00 | 0.00 | 10 | 1015.1 |
| 20260502214329 | 67 | 0 | 0.9 | 3.5 | 0.00 | 0.00 | 0.00 | 11 | 1015.5 |
| 20260502213334 | 67 | 200 | 0.9 | 6.1 | 0.00 | 0.00 | 0.00 | 10 | 1015.7 |
| 20260502212307 | 67 | 219 | 0.9 | 7.0 | 0.00 | 0.00 | 0.00 | 11 | 1015.9 |
| 20260502211251 | 67 | 158 | 0.9 | 5.2 | 0.00 | 0.00 | 0.00 | 10 | 1016.1 |
| 20260502210252 | 66 | 172 | 0.9 | 7.0 | 0.00 | 0.00 | 0.00 | 10 | 1016.3 |
| 20260502205311 | 66 | 195 | 0.9 | 3.5 | 0.00 | 0.00 | 0.00 | 10 | 1016.4 |
| 20260502204306 | 65 | 150 | 0.9 | 3.5 | 0.00 | 0.00 | 0.00 | 10 | 1016.5 |
| 20260502203314 | 65 | 200 | 0.9 | 4.3 | 0.00 | 0.00 | 0.00 | 12 | 1016.5 |
| 20260502202242 | 65 | 155 | 1.7 | 9.6 | 0.00 | 0.00 | 0.00 | 10 | 1016.8 |